Weather History for MMZC - November, 2012

Change the Weather History Date:

Friday, November 30, 2012

  Actual Average Record
Temperature  
Mean Temperature 54 °F -  
Max Temperature 71 °F 68 °F 75 °F (2004)
Min Temperature 37 °F 36 °F 17 °F (2011)
Degree Days  
Heating Degree Days 11    
Growing Degree Days 4 (Base 50)    
Moisture  
Dew Point 37 °F    
Average Humidity 53    
Maximum Humidity 81    
Minimum Humidity 29    
Precipitation  
Precipitation 0.00 in - - ()
Sea Level Pressure  
Sea Level Pressure 30.32 in    
Wind  
Wind Speed 4 mph ()    
Max Wind Speed 10 mph    
Max Gust Speed -    
Visibility 10.0 miles    
Events      
Averages and records for this station are not official NWS values.
T = Trace of Precipitation, MM = Missing Value Source: Averaged Metar Reports

Daily Weather History Graph

Daily Weather History Graph

Search for Another Location

Airport or City:

Trip Planner

Search our weather history database for the weather conditions in past years. The results will help you decide how hot, cold, wet, or windy it might be!

Date:

Astronomy

Nov. 30, 2012 Rise Set
Actual Time 7:14 AM CST 6:04 PM CST
Civil Twilight 6:50 AM CST 6:29 PM CST
Nautical Twilight 6:22 AM CST 6:56 PM CST
Astronomical Twilight 5:55 AM CST 7:24 PM CST
Moon 7:59 PM CST (11/30) 8:48 AM CST (11/30)
Length of Visible Light 11h 38m
Length of Day
10h 50m
Waning Gibbous, 96% of the Moon is Illuminated
Nov 30
Waning Gibbous
Dec 6
Last Quarter
Dec 13
New
Dec 19
First Quarter
Dec 28
Full

Hourly Weather History & Observations

Time (CST) Temp. Windchill Dew Point Humidity Pressure Visibility Wind Dir Wind Speed Gust Speed Precip Events Conditions
12:42 AM 44.6 °F 41.4 °F 33.8 °F 66% 30.37 in 10.0 mi WSW 5.8 mph - N/A   Clear
1:42 AM 44.6 °F 40.7 °F 33.8 °F 66% 30.34 in 10.0 mi SSE 6.9 mph - N/A   Clear
3:52 AM 37.4 °F - 32.0 °F 81% 30.22 in 10.0 mi Calm Calm - N/A   Clear
5:15 AM 39.2 °F - 32.0 °F 75% 30.32 in 10.0 mi Calm Calm - N/A   Clear
5:43 AM 39.2 °F 35.0 °F 32.0 °F 75% 30.32 in 10.0 mi South 5.8 mph - N/A   Clear
6:50 AM 37.4 °F 33.8 °F 32.0 °F 81% 30.35 in 10.0 mi South 4.6 mph - N/A   Partly Cloudy
7:51 AM 37.4 °F - 32.0 °F 81% 30.36 in 10.0 mi Calm Calm - N/A   Scattered Clouds
8:46 AM 46.4 °F - 37.4 °F 71% 30.38 in 10.0 mi Calm Calm - N/A   Scattered Clouds
9:45 AM 53.6 °F - 39.2 °F 58% 30.39 in 10.0 mi Calm Calm - N/A   Scattered Clouds
10:44 AM 60.8 °F - 41.0 °F 48% 30.38 in 10.0 mi Calm Calm - N/A   Partly Cloudy
11:45 AM 64.4 °F - 41.0 °F 42% 30.36 in 10.0 mi Calm Calm - N/A   Partly Cloudy
12:45 PM 69.8 °F - 41.0 °F 35% 30.33 in 10.0 mi NE 6.9 mph - N/A   Scattered Clouds
1:50 PM 71.6 °F - 42.8 °F 35% 30.30 in 10.0 mi ENE 6.9 mph - N/A   Scattered Clouds
2:44 PM 71.6 °F - 41.0 °F 33% 30.28 in 10.0 mi NNE 10.4 mph - N/A   Mostly Cloudy
3:40 PM 71.6 °F - 37.4 °F 29% 30.26 in 10.0 mi NE 8.1 mph - N/A   Mostly Cloudy
4:44 PM 69.8 °F - 39.2 °F 33% 30.26 in 10.0 mi East 8.1 mph - N/A   Mostly Cloudy
5:42 PM 66.2 °F - 39.2 °F 37% 30.26 in 10.0 mi East 10.4 mph - N/A   Scattered Clouds
6:43 PM 62.6 °F - 37.4 °F 39% 30.28 in 10.0 mi East 6.9 mph - N/A   Scattered Clouds
7:44 PM 57.2 °F - 35.6 °F 44% 30.29 in 10.0 mi East 6.9 mph - N/A   Scattered Clouds
8:45 PM 57.2 °F - 35.6 °F 44% 30.30 in 10.0 mi ESE 6.9 mph - N/A   Scattered Clouds
9:41 PM 55.4 °F - 35.6 °F 47% 30.31 in 10.0 mi Calm Calm - N/A   Partly Cloudy
10:45 PM 51.8 °F - 35.6 °F 54% 30.32 in 10.0 mi Calm Calm - N/A   Partly Cloudy
11:40 PM 50.0 °F - 33.8 °F 54% 30.33 in 10.0 mi West 4.6 mph - N/A   Partly Cloudy